Change the Weather History Date:

Thursday, January 16, 2014

  Actual Average Record
Temperature  
Mean Temperature 45 °F -  
Max Temperature 51 °F 63 °F 82 °F (2013)
Min Temperature 37 °F 42 °F 33 °F (2009)
Degree Days  
Heating Degree Days 20    
Moisture  
Dew Point 24 °F    
Average Humidity 46    
Maximum Humidity 79    
Minimum Humidity 24    
Precipitation  
Precipitation 0.00 in - - ()
Sea Level Pressure  
Sea Level Pressure 30.09 in    
Wind  
Wind Speed 13 mph (NW)    
Max Wind Speed 20 mph    
Max Gust Speed 30 mph    
Visibility 10 miles    
Events Rain    
Averages and records for this station are not official NWS values.
T = Trace of Precipitation, MM = Missing Value Source: NWS Daily Summary

Daily Weather History Graph

Daily Weather History Graph

Search for Another Location

Airport or City:

Trip Planner

Search our weather history database for the weather conditions in past years. The results will help you decide how hot, cold, wet, or windy it might be!

Date:

Astronomy

Jan. 16, 2014 Rise Set
Actual Time 7:23 AM EST 5:48 PM EST
Civil Twilight 6:57 AM EST 6:14 PM EST
Nautical Twilight 6:27 AM EST 6:44 PM EST
Astronomical Twilight 5:59 AM EST 7:12 PM EST
Moon 6:32 PM EST (1/16) 7:21 AM EST (1/16)
Length of Visible Light 11h 17m
Length of Day
10h 25m
Full, 100% of the Moon is Illuminated
Jan 16
Full
Jan 24
Last Quarter
Jan 30
New
Feb 6
First Quarter
Feb 14
Full

Hourly Weather History & Observations

Time (EST) Temp. Windchill Dew Point Humidity Pressure Visibility Wind Dir Wind Speed Gust Speed Precip Events Conditions
12:53 AM 50.0 °F - 35.1 °F 57% 30.00 in 10.0 mi NW 19.6 mph - N/A   Overcast
1:53 AM 46.9 °F - 32.0 °F 56% 30.02 in 10.0 mi NNW 17.3 mph 29.9 mph 0.00 in Rain Light Rain
2:53 AM 46.9 °F - 30.9 °F 54% 30.03 in 10.0 mi NW 19.6 mph 25.3 mph 0.00 in   Overcast
3:53 AM 46.0 °F 41.9 °F 28.9 °F 51% 30.03 in 10.0 mi NW 8.1 mph - 0.00 in   Overcast
4:53 AM 44.1 °F 38.1 °F 27.0 °F 51% 30.05 in 10.0 mi NW 11.5 mph - N/A   Clear
5:53 AM 42.1 °F 34.9 °F 25.0 °F 51% 30.07 in 10.0 mi NW 13.8 mph - N/A   Clear
6:53 AM 39.9 °F 34.5 °F 25.0 °F 55% 30.09 in 10.0 mi NNW 8.1 mph - N/A   Clear
7:53 AM 39.9 °F 33.4 °F 24.1 °F 53% 30.10 in 10.0 mi North 10.4 mph - N/A   Clear
8:53 AM 41.0 °F 33.9 °F 24.1 °F 51% 30.12 in 10.0 mi NNW 12.7 mph - N/A   Clear
9:53 AM 43.0 °F 36.0 °F 25.0 °F 49% 30.13 in 10.0 mi NW 13.8 mph - N/A   Clear
10:53 AM 45.0 °F 38.2 °F 21.9 °F 40% 30.13 in 10.0 mi NNW 15.0 mph - N/A   Clear
11:53 AM 46.9 °F - 19.0 °F 33% 30.11 in 10.0 mi NW 12.7 mph - N/A   Clear
12:53 PM 48.9 °F - 16.0 °F 27% 30.09 in 10.0 mi NW 15.0 mph - N/A   Clear
1:53 PM 50.0 °F - 15.1 °F 25% 30.07 in 10.0 mi NW 10.4 mph 21.9 mph N/A   Clear
2:53 PM 51.1 °F - 15.1 °F 24% 30.07 in 10.0 mi NW 15.0 mph - N/A   Clear
3:53 PM 51.1 °F - 15.1 °F 24% 30.08 in 10.0 mi WNW 10.4 mph - N/A   Clear
4:53 PM 51.1 °F - 17.1 °F 26% 30.09 in 10.0 mi WNW 6.9 mph - N/A   Clear
5:53 PM 48.9 °F - 17.1 °F 28% 30.10 in 10.0 mi West 9.2 mph - N/A   Clear
6:53 PM 46.0 °F 43.9 °F 19.9 °F 35% 30.12 in 10.0 mi WNW 4.6 mph - N/A   Clear
7:53 PM 45.0 °F 42.6 °F 21.0 °F 39% 30.13 in 10.0 mi West 4.6 mph - N/A   Clear
8:53 PM 43.0 °F 40.3 °F 23.0 °F 45% 30.15 in 10.0 mi West 4.6 mph - N/A   Clear
9:53 PM 39.0 °F - 30.0 °F 70% 30.16 in 10.0 mi Calm Calm - N/A   Clear
10:53 PM 39.0 °F - 30.9 °F 73% 30.17 in 10.0 mi Calm Calm - N/A   Clear
11:53 PM 37.0 °F - 30.9 °F 79% 30.16 in 10.0 mi Calm Calm - N/A   Clear